Content
SEND FEEDBACK

Daily
Averages
Monthly
Summary
United States of America

CARIBOU, MAINE


Home > North America > United States > Maine
Elevation: 630 feet     Latitude: 46 52N     Longitude: 068 02W

WEATHER
 
SELECT A DAY
Number of Records: 146,289;   Date Range: 1/1/95 - 9/29/14
 
SHARE

PRINT THIS DATA

[ ← Previous Day ]
WEATHER ALMANAC - JANUARY 31, 2013
[ Next Day → ]
[ °C ]   °F
Weather ElementAverageHighLow
Temperature39.6 °F53.1 °F (10:54 am)17.1 °F (11:54 pm)
Dewpoint34.7 °F50 °F (9:54 am)3 °F (11:54 pm)
Humidity83.5 %100 % (12:17 am)53 % (11:47 pm)
Barometer28.95 in29.27 in (12:17 am)28.59 in (12:32 pm)
Wind Speed18.3 mph35.7 mph (9:54 pm)
Wind Gust47.2 mph (1:39 pm)
Weather ElementAverage
Visibility5 mi
Wind DirectionSSW (207.6 °)

Weather ElementTotal
Precipitation1.35 in
Heating Degree Days29.9 (Base 65)
Averaged from 50 records on January 31, 2013
WEATHER CONDITIONS BREAKOUT
WIND DIRECTION BREAKOUT
WEATHER BY HOUR - JANUARY 31, 2013
[ °C ]   °F
Local TimeTemperatureDewpointHumidityBarometerVisibilityWind DirectionWind SpeedGust SpeedPrecipitationEventsConditions
12:17 AM42.8 °F42.8 °F100 %29.27 in0.5 miSE (130°)5.8 mph0.00 inFogFog
12:30 AM44.6 °F42.8 °F93 %29.25 in0.2 miSE (130°)6.9 mph0.00 inFogFog
12:43 AM44.6 °F42.8 °F93 %29.26 in0.5 miSouth (170°)4.6 mph0.00 inFog-RainLight Rain
12:54 AM44.1 °F43.0 °F96 %29.27 in0.5 miSouth (170°)6.9 mph0.00 inFog-RainLight Rain
1:25 AM46.4 °F44.6 °F93 %29.25 in1.5 miSouth (180°)5.8 mph0.00 inOvercast
1:35 AM46.4 °F44.6 °F93 %29.25 in0.8 miSouth (180°)8.1 mph0.00 inRainLight Rain
1:54 AM45.0 °F45.0 °F100 %29.26 in0.5 miSE (130°)5.8 mph0.00 inFog-RainLight Rain
2:54 AM45.0 °F44.1 °F97 %29.23 in0.2 miESE (110°)4.6 mph0.02 inFog-RainLight Rain
3:54 AM45.0 °F44.1 °F97 %29.19 in0.2 miSE (140°)5.8 mph0.04 inFog-RainLight Rain
4:54 AM45.0 °F44.1 °F97 %29.11 in0.2 miSSE (150°)8.1 mph0.15 inFog-RainRain
5:42 AM48.2 °F46.4 °F93 %29.02 in1.2 miSSE (160°)13.8 mph25.3 mph0.15 inRainLight Rain
5:54 AM46.9 °F46.9 °F100 %29.03 in0.5 miSSE (160°)10.4 mph0.17 inFog-RainLight Rain
6:04 AM48.2 °F46.4 °F93 %29.01 in1.8 miSouth (170°)16.1 mph23.0 mph0.01 inRainLight Rain
6:06 AM48.2 °F46.4 °F93 %29.01 in3.0 miSouth (170°)13.8 mph23.0 mph0.01 inRainLight Rain
6:54 AM48.0 °F46.9 °F96 %28.96 in2.5 miSouth (170°)16.1 mph0.06 inRainLight Rain
7:38 AM48.2 °F48.2 °F100 %28.90 in5.0 miSouth (170°)17.3 mph25.3 mph0.06 inRainLight Rain
7:51 AM48.2 °F48.2 °F100 %28.88 in4.0 miSouth (170°)17.3 mph24.2 mph0.07 inRainLight Rain
7:54 AM50.0 °F48.0 °F93 %28.90 in5.0 miSSE (160°)18.4 mph25.3 mph0.07 inRainLight Rain
8:08 AM50.0 °F48.2 °F94 %28.86 in5.0 miSSE (160°)16.1 mph26.5 mph0.03 inRainLight Rain
8:54 AM50.0 °F48.9 °F96 %28.80 in7.0 miSouth (170°)17.3 mph25.3 mph0.09 inRainLight Rain
9:54 AM52.0 °F50.0 °F93 %28.75 in5.0 miSouth (180°)19.6 mph28.8 mph0.05 inRainLight Rain
10:16 AM51.8 °F50.0 °F94 %28.71 in6.0 miSouth (180°)20.7 mph32.2 mph0.00 inRainLight Rain
10:54 AM53.1 °F50.0 °F89 %28.70 in10.0 miSouth (180°)20.7 mph28.8 mph0.00 inRainLight Rain
11:54 AM51.1 °F48.9 °F92 %28.61 in10.0 miSouth (180°)13.8 mph0.02 inOvercast
12:32 PM50.0 °F48.2 °F94 %28.59 in1.5 miSW (230°)31.1 mph44.9 mph0.01 inRainLight Rain
12:36 PM46.4 °F44.6 °F93 %28.60 in1.2 miWest (260°)17.3 mph44.9 mph0.08 inRainRain
12:40 PM46.4 °F42.8 °F87 %28.60 in1.5 miWest (260°)19.6 mph44.9 mphRainLight Rain
12:42 PM46.4 °F42.8 °F87 %28.60 in3.0 miWest (260°)20.7 mph38.0 mph0.08 inRainLight Rain
12:54 PM44.1 °F41.0 °F89 %28.65 in5.0 miWSW (250°)19.6 mph32.2 mph0.10 inRainLight Rain
1:25 PM41.0 °F37.4 °F87 %28.64 in9.0 miWSW (250°)25.3 mph36.8 mph0.02 inRainLight Rain
1:39 PM39.2 °F35.6 °F87 %28.65 in6.0 miWSW (250°)29.9 mph47.2 mph0.03 inRainLight Rain
1:54 PM39.0 °F35.1 °F86 %28.70 in6.0 miWSW (250°)25.3 mph41.4 mph0.03 inRainLight Rain
2:54 PM36.0 °F32.0 °F86 %28.77 in10.0 miWSW (240°)21.9 mph34.5 mph0.00 inRainLight Rain
3:07 PM35.6 °F30.2 °F81 %28.77 in10.0 miWSW (250°)23.0 mph38.0 mph0.00 inOvercast
3:37 PM35.6 °F26.6 °F70 %28.80 in10.0 miWest (260°)26.5 mph44.9 mph0.00 inMostly Cloudy
3:54 PM35.1 °F27.0 °F72 %28.83 in10.0 miWSW (250°)23.0 mph31.1 mph0.00 inOvercast
4:54 PM33.1 °F19.9 °F59 %28.90 in10.0 miWSW (250°)26.5 mph42.6 mphPartly Cloudy
5:54 PM33.1 °F21.0 °F61 %28.94 in10.0 miWSW (250°)21.9 mph42.6 mphOvercast
6:54 PM30.9 °F17.1 °F57 %28.99 in10.0 miWSW (250°)23.0 mph39.1 mph0.00 inOvercast
7:54 PM28.9 °F17.1 °F61 %29.02 in10.0 miWSW (240°)26.5 mph36.8 mph0.00 inMostly Cloudy
8:23 PM26.6 °F19.4 °F74 %29.02 in2.0 miWSW (240°)28.8 mph43.7 mph0.00 inSnowLight Snow
8:30 PM26.6 °F17.6 °F69 %29.02 in4.0 miWSW (250°)24.2 mph38.0 mph0.00 inSnowLight Snow
8:54 PM26.1 °F16.0 °F66 %29.06 in10.0 miWSW (240°)26.5 mph36.8 mph0.00 inMostly Cloudy
9:54 PM24.1 °F10.0 °F55 %29.08 in10.0 miWSW (240°)35.7 mph46.0 mph0.00 inOvercast
10:54 PM21.0 °F10.0 °F63 %29.12 in6.0 miWSW (250°)26.5 mph38.0 mph0.00 inSnowLight Snow
11:16 PM19.4 °F10.4 °F68 %29.12 in2.5 miWest (260°)16.1 mph31.1 mph0.00 inSnowLight Snow
11:24 PM19.4 °F10.4 °F68 %29.13 in7.0 miWSW (250°)20.7 mph28.8 mph0.00 inSnowLight Snow
11:35 PM17.6 °F6.8 °F63 %29.13 in7.0 miWest (260°)23.0 mph32.2 mph0.00 inSnowLight Snow
11:47 PM17.6 °F3.2 °F53 %29.15 in9.0 miWest (260°)18.4 mph34.5 mph0.00 inOvercast
11:54 PM17.1 °F3.0 °F54 %29.18 in10.0 miWest (260°)20.7 mph34.5 mph0.00 inOvercast
Hourly data recorded from KCAR, located miles away from Caribou, Maine







STORIES FROM OUR PARTNERS